TimePST,TemperatureF,Dew PointF,Humidity,Sea Level PressureIn,VisibilityMPH,Wind Direction,Wind SpeedMPH,Gust SpeedMPH,PrecipitationIn,Events,Conditions,WindDirDegrees,DateUTC
12:15 AM,24.8,21.2,86,29.93,10.0,South,3.5,-,N/A,,Overcast,180,2012-12-27 08:15:00
12:35 AM,24.8,21.2,86,29.93,10.0,Calm,Calm,-,N/A,,Overcast,0,2012-12-27 08:35:00
12:55 AM,23.0,21.2,93,29.94,10.0,SSE,4.6,-,N/A,,Overcast,160,2012-12-27 08:55:00
1:15 AM,21.2,19.4,93,29.94,10.0,South,6.9,-,N/A,,Mostly Cloudy,170,2012-12-27 09:15:00
1:55 AM,23.0,21.2,93,29.95,10.0,SSE,8.1,-,N/A,,Overcast,160,2012-12-27 09:55:00
2:15 AM,21.2,19.4,93,29.96,10.0,South,4.6,-,N/A,,Overcast,180,2012-12-27 10:15:00
2:35 AM,17.6,15.8,93,29.96,10.0,Calm,Calm,-,N/A,,Mostly Cloudy,0,2012-12-27 10:35:00
2:55 AM,17.6,15.8,93,29.97,1.5,Calm,Calm,-,N/A,,Overcast,0,2012-12-27 10:55:00
3:15 AM,17.6,15.8,93,29.97,1.0,Calm,Calm,-,N/A,,Overcast,0,2012-12-27 11:15:00
3:35 AM,15.8,15.8,100,29.97,0.8,Calm,Calm,-,N/A,,Overcast,0,2012-12-27 11:35:00
3:55 AM,15.8,15.8,100,29.97,7.0,Calm,Calm,-,N/A,,Overcast,0,2012-12-27 11:55:00
4:15 AM,14.0,12.2,93,29.98,3.0,North,3.5,-,N/A,,Overcast,10,2012-12-27 12:15:00
4:35 AM,14.0,12.2,93,29.98,2.0,NNW,3.5,-,N/A,,Overcast,340,2012-12-27 12:35:00
4:55 AM,12.2,10.4,92,29.98,1.0,WNW,6.9,-,N/A,,Overcast,300,2012-12-27 12:55:00
5:15 AM,10.4,8.6,92,29.99,0.8,NNW,4.6,-,N/A,,Overcast,330,2012-12-27 13:15:00
5:35 AM,8.6,5.0,85,29.99,0.8,North,3.5,-,N/A,,Overcast,360,2012-12-27 13:35:00
5:55 AM,8.6,6.8,92,30.00,0.2,North,3.5,-,N/A,,Overcast,10,2012-12-27 13:55:00
6:15 AM,8.6,6.8,92,30.00,0.2,North,4.6,-,N/A,,Overcast,360,2012-12-27 14:15:00
6:35 AM,10.4,10.4,100,30.01,1.2,NNW,4.6,-,N/A,,Overcast,330,2012-12-27 14:35:00
6:55 AM,12.2,12.2,100,30.01,5.0,NW,4.6,-,N/A,,Overcast,320,2012-12-27 14:55:00
7:15 AM,14.0,12.2,93,30.02,2.0,Calm,Calm,-,N/A,,Overcast,0,2012-12-27 15:15:00
7:35 AM,14.0,12.2,93,30.02,2.0,Calm,Calm,-,N/A,,Overcast,0,2012-12-27 15:35:00
7:55 AM,12.2,10.4,92,30.03,4.0,NNE,5.8,-,N/A,,Overcast,20,2012-12-27 15:55:00
8:15 AM,15.8,14.0,93,30.03,9.0,North,4.6,-,N/A,,Overcast,350,2012-12-27 16:15:00
8:35 AM,17.6,15.8,93,30.04,10.0,NW,4.6,-,N/A,,Overcast,310,2012-12-27 16:35:00
8:55 AM,14.0,10.4,86,30.05,10.0,North,4.6,-,N/A,,Mostly Cloudy,10,2012-12-27 16:55:00
9:15 AM,17.6,15.8,93,30.06,10.0,Calm,Calm,-,N/A,,Mostly Cloudy,0,2012-12-27 17:15:00
9:35 AM,19.4,17.6,93,30.06,10.0,West,3.5,-,N/A,,Overcast,280,2012-12-27 17:35:00
9:55 AM,21.2,19.4,93,30.07,10.0,Calm,Calm,-,N/A,,Overcast,0,2012-12-27 17:55:00
10:15 AM,21.2,19.4,93,30.07,10.0,Calm,Calm,-,N/A,,Overcast,0,2012-12-27 18:15:00
10:35 AM,23.0,21.2,93,30.07,10.0,Calm,Calm,-,N/A,,Overcast,0,2012-12-27 18:35:00
10:55 AM,24.8,24.8,100,30.07,10.0,Calm,Calm,-,N/A,,Overcast,0,2012-12-27 18:55:00
11:15 AM,24.8,21.2,86,30.07,10.0,East,3.5,-,N/A,,Overcast,100,2012-12-27 19:15:00
11:35 AM,24.8,21.2,86,30.07,10.0,Calm,Calm,-,N/A,,Overcast,0,2012-12-27 19:35:00
11:55 AM,26.6,24.8,93,30.07,10.0,SE,3.5,-,N/A,,Overcast,140,2012-12-27 19:55:00
12:15 PM,24.8,23.0,93,30.06,10.0,Calm,Calm,-,N/A,,Overcast,0,2012-12-27 20:15:00
12:35 PM,26.6,24.8,93,30.06,10.0,South,3.5,-,N/A,,Overcast,180,2012-12-27 20:35:00
12:55 PM,28.4,23.0,80,30.06,10.0,South,3.5,-,N/A,,Overcast,180,2012-12-27 20:55:00
1:15 PM,26.6,23.0,86,30.06,10.0,ESE,3.5,-,N/A,,Overcast,120,2012-12-27 21:15:00
1:35 PM,26.6,24.8,93,30.06,10.0,SSE,3.5,-,N/A,,Overcast,150,2012-12-27 21:35:00
1:55 PM,26.6,23.0,86,30.06,10.0,Calm,Calm,-,N/A,,Overcast,0,2012-12-27 21:55:00
2:15 PM,28.4,24.8,86,30.07,10.0,Calm,Calm,-,N/A,,Overcast,0,2012-12-27 22:15:00
2:35 PM,26.6,23.0,86,30.07,10.0,Calm,Calm,-,N/A,,Overcast,0,2012-12-27 22:35:00
2:55 PM,26.6,23.0,86,30.07,10.0,SSE,4.6,-,N/A,,Overcast,150,2012-12-27 22:55:00
3:15 PM,26.6,24.8,93,30.07,10.0,SSE,4.6,-,N/A,,Overcast,160,2012-12-27 23:15:00
3:35 PM,26.6,24.8,93,30.07,10.0,SSW,3.5,-,N/A,,Overcast,210,2012-12-27 23:35:00
3:55 PM,26.6,24.8,93,30.07,10.0,SW,3.5,-,N/A,,Overcast,230,2012-12-27 23:55:00
4:15 PM,26.6,23.0,86,30.07,10.0,South,5.8,-,N/A,,Overcast,170,2012-12-28 00:15:00
4:35 PM,26.6,21.2,80,30.08,10.0,WSW,5.8,-,N/A,,Overcast,250,2012-12-28 00:35:00
4:55 PM,24.8,21.2,86,30.08,10.0,Calm,Calm,-,N/A,,Overcast,0,2012-12-28 00:55:00
5:15 PM,24.8,21.2,86,30.08,10.0,Calm,Calm,-,N/A,,Overcast,0,2012-12-28 01:15:00
5:35 PM,24.8,23.0,93,30.09,10.0,WSW,3.5,-,N/A,,Overcast,250,2012-12-28 01:35:00
5:55 PM,21.2,19.4,93,30.09,10.0,Calm,Calm,-,N/A,,Overcast,0,2012-12-28 01:55:00
6:15 PM,21.2,19.4,93,30.09,10.0,ENE,5.8,-,N/A,,Overcast,60,2012-12-28 02:15:00
6:35 PM,21.2,19.4,93,30.09,10.0,ENE,4.6,-,N/A,,Overcast,60,2012-12-28 02:35:00
6:55 PM,21.2,19.4,93,30.10,10.0,ENE,3.5,-,N/A,,Overcast,70,2012-12-28 02:55:00
7:15 PM,21.2,21.2,100,30.09,10.0,East,5.8,-,N/A,,Overcast,80,2012-12-28 03:15:00
7:35 PM,21.2,19.4,93,30.10,10.0,Calm,Calm,-,N/A,,Overcast,0,2012-12-28 03:35:00
7:55 PM,21.2,19.4,93,30.10,10.0,Calm,Calm,-,N/A,,Overcast,0,2012-12-28 03:55:00
8:15 PM,21.2,19.4,93,30.09,10.0,Calm,Calm,-,N/A,,Overcast,0,2012-12-28 04:15:00
8:35 PM,21.2,17.6,86,30.10,10.0,Calm,Calm,-,N/A,,Overcast,0,2012-12-28 04:35:00
8:55 PM,21.2,19.4,93,30.10,10.0,North,4.6,-,N/A,,Overcast,10,2012-12-28 04:55:00
9:35 PM,17.6,15.8,93,30.10,10.0,NW,4.6,-,N/A,,Mostly Cloudy,320,2012-12-28 05:35:00
9:55 PM,14.0,10.4,86,30.10,10.0,NW,4.6,-,N/A,,Partly Cloudy,310,2012-12-28 05:55:00
10:15 PM,10.4,8.6,92,30.11,10.0,NNW,4.6,-,N/A,,Clear,330,2012-12-28 06:15:00
10:35 PM,8.6,6.8,92,30.12,10.0,Calm,Calm,-,N/A,,Clear,0,2012-12-28 06:35:00
10:55 PM,6.8,3.2,85,30.12,10.0,Calm,Calm,-,N/A,,Clear,0,2012-12-28 06:55:00
11:15 PM,6.8,3.2,85,30.12,0.8,Calm,Calm,-,N/A,,Mostly Cloudy,0,2012-12-28 07:15:00
11:35 PM,1.4,-4.0,78,30.12,0.5,ESE,3.5,-,N/A,,Overcast,110,2012-12-28 07:35:00
11:55 PM,1.4,-0.4,92,30.12,0.8,Calm,Calm,-,N/A,,Mostly Cloudy,0,2012-12-28 07:55:00